Regional Weather Roundup
Issued by NWS

Home | Current Version | Previous Version | Text Only | Print | Product List | Glossary On
Versions: 1 2 3 4 5 6 7 8 9 10 11 12 13 14 15 16 17 18 19 20 21 22 23 24 25 26 27 28 29 30 31 32 33 34 35 36 37 38 39 40 41 42 43 44 45 46 47 48 49 50
000
ASUS43 KMPX 051710
RWRMN
WEATHER ROUNDUP FOR MINNESOTA
NATIONAL WEATHER SERVICE TWIN CITIES/CHANHASSEN MN
1100 AM CST THU MAR 05 2015


NOTE: "FAIR" INDICATES FEW OR NO CLOUDS BELOW 12,000 FEET WITH NO
SIGNIFICANT WEATHER AND/OR OBSTRUCTIONS TO VISIBILITY. N/A MEANS
CURRENT SKY AND/OR WEATHER CONDITIONS ARE NOT AVAILABLE.

MNZ060>063-068>070-051800-
   Twin Cities Metro

CITY           SKY/WX    TMP DP  RH WIND       PRES   REMARKS
TWIN CITIES    SUNNY      5  -8  55 W5        30.51F WCI  -4
ST PAUL        SUNNY      6  -6  57 VRB7      30.54S WCI  -6
CRYSTAL        SUNNY      6  -6  57 W6        30.50S WCI  -4
BLAINE         SUNNY      7  -6  56 SW7       30.49F WCI  -5
LAKEVILLE      SUNNY      3  -8  60 SW6       30.51S WCI  -8
EDEN PRAIRIE   SUNNY      6  -5  60 VRB5      30.50F WCI  -3
SOUTH ST PAUL  SUNNY      7  -6  54 SW7       30.52S WCI  -5
LAKE ELMO      FAIR       7  -4  61 W7        30.51S WCI  -5
$$
MNZ001>005-007-008-013>017-022>024-027-028-051800-
   Northwest Minnesota

CITY           SKY/WX    TMP DP  RH WIND       PRES   REMARKS
BEMIDJI        SUNNY      5  -8  55 SW10      30.31S WCI -10
HALLOCK        SUNNY      1  -6  71 S16       30.26F WCI -18
ROSEAU         SUNNY      3  -8  60 S15       30.26F WCI -15
WARROAD        SUNNY      1  -9  60 SW12      30.27S WCI -15
THIEF RVR FALL SUNNY      5  -6  61 S14       30.28F WCI -12
CROOKSTON      SUNNY      9   0  66 S20       30.31F WCI -11
FOSSTON        SUNNY      3  -6  66 S18       30.31F WCI -17
DETROIT LAKES  SUNNY      5  -6  61 SW12      30.35F WCI -11
MOORHEAD       SUNNY      9  -4  56 S15       30.37F WCI  -8
PARK RAPIDS    SUNNY      4  -7  60 SW10      30.34S WCI -11
$$
MNZ006-009>011-018-025>026-051800-
   North Central Minnesota

CITY           SKY/WX    TMP DP  RH WIND       PRES   REMARKS
BAUDETTE       SUNNY      3  -9  57 SW7       30.27F WCI  -9
FLAG ISLAND    SUNNY     -6 -11  77 S17       30.25S WCI -28
INTL FALLS     SUNNY      4 -11  50 SW9       30.29F WCI -10
WASKISH        SUNNY      3  -8  60 SW10      30.31F WCI -12
BIG FORK       SUNNY      7  -9  47 SW8       30.31S WCI  -6
LONGVILLE      SUNNY      3  -9  55 SW8       30.35F WCI -10
GRAND RAPIDS   SUNNY      3  -8  60 SW8       30.32F WCI -10
CRANE LAKE     SUNNY      3 -15  43 SW6       30.33F WCI  -8
ORR            SUNNY      3 -15  43 SW6       30.28F WCI  -8
COOK           SUNNY      3 -11  51 SW6       30.32S WCI  -8
$$
MNZ012-019>021-037-051800-
   Northeast Minnesota

CITY           SKY/WX    TMP DP  RH WIND       PRES   REMARKS
DULUTH         SUNNY      3 -11  52 W10       30.34F WCI -12
ELY            SUNNY      1 -11  55 W7        30.30F WCI -11
HIBBING        SUNNY      4 -11  50 VRB7      30.33F WCI  -8
EVELETH        SUNNY      3  -9  55 SW9       30.34F WCI -11
DULUTH HARBOR  SUNNY      3  -8  60 SW7       30.46F WCI  -9
TWO HARBORS    SUNNY      9  -8  47 SW10G16   30.35F WCI  -6
SILVER BAY     SUNNY     10 -13  34 W6        30.33F WCI   1
GRAND MARAIS     N/A      9   3  77 SW16      30.36F WCI  -8
G MARAIS ARPRT SUNNY      5 -17  36 W5        30.24S WCI  -4
$$
MNZ029>031-032-039>041-046>048-054>057-064-051800-
   West Central Minnesota

CITY           SKY/WX    TMP DP  RH WIND       PRES   REMARKS
FERGUS FALLS   SUNNY      3  -8  60 S12       30.44F WCI -13
WHEATON        SUNNY      3  -6  66 SE10      30.43S WCI -12
MORRIS         SUNNY      5  -6  61 S9        30.42S WCI  -9
ALEXANDRIA     SUNNY      0  -7  72 SW12      30.40S WCI -17
ELBOW LAKE     FAIR       1  -7  67 S10       30.40F WCI -14
WADENA         SUNNY      1  -8  66 SW8       30.38R WCI -12
GLENWOOD       SUNNY      1  -4  78 SW14      30.42S WCI -17
APPLETON       SUNNY      9  -6  52 S9        30.44F WCI  -5
BENSON         SUNNY      9  -6  52 SW8       30.44S WCI  -4
ORTONVILLE     SUNNY      7  -6  56 S7        30.42S WCI  -5
MADISON        SUNNY     10  -2  56 S7        30.44F WCI   0
WILLMAR        FAIR       7  -4  61 SW9       30.46F WCI  -7
$$
MNZ033>034-036-042>043-049>051-058-059-051800-
   Central Minnesota

CITY           SKY/WX    TMP DP  RH WIND       PRES   REMARKS
ST CLOUD       SUNNY      5  -6  60 SW9       30.46F WCI  -9
SAUK CENTRE    FAIR       3  -6  64 SW13      30.43F WCI -14
PAYNESVILLE    SUNNY      1  -8  66 S10       30.45F WCI -14
AITKIN         SUNNY      7  -9  47 SW5       30.38F WCI  -2
PINE RIVER     SUNNY      3  -8  60 S9        30.39F WCI -11
BRAINERD       SUNNY      2  -9  60 SW9       30.40F WCI -13
STAPLES        SUNNY      3  -8  60 SW8       30.39S WCI -10
LONG PRAIRIE   FAIR       3  -6  66 SW12      30.41F WCI -13
LITTLE FALLS   SUNNY      3  -8  60 SW5       30.44F WCI  -6
LITCHFIELD     SUNNY      7  -4  61 SW5       30.47S WCI  -2
BUFFALO        SUNNY      5  -6  60 SW8       30.50S WCI  -8
MAPLE LAKE     SUNNY      6  -4  63 SW7       30.49S WCI  -5
$$
MNZ037-044-045-052-053-051800-
   East Central Minnesota

CITY           SKY/WX    TMP DP  RH WIND       PRES   REMARKS
PRINCETON      SUNNY      7  -6  56 SW6       30.46F WCI  -3
MORA           SUNNY      5  -8  56 SW9       30.47S WCI  -9
CAMBRIDGE      SUNNY      5  -8  56 S6        30.46S WCI  -6
RUSH CITY      MOSUNNY    5  -8  56 W5        30.48S WCI  -4
MOOSE LAKE     SUNNY      7  -9  47 CALM      30.40F
HINCKLEY       FAIR       5  -8  56 SW7       30.45F WCI  -7
CLOQUET        SUNNY      1 -11  55 SW7       30.37S WCI -11
MCGREGOR       SUNNY      5  -6  61 SW6       30.39F WCI  -6
$$
MNZ071>073-080-081-089-090-097-098-051800-
   Southwest Minnesota

CITY           SKY/WX    TMP DP  RH WIND       PRES   REMARKS
MONTEVIDEO     SUNNY     10   0  61 S6        30.46F WCI   1
GRANITE FALLS  SUNNY      9  -2  61 S8        30.48F WCI  -4
CANBY          SUNNY     11  -3  53 SW8       30.44S WCI   0
MARSHALL       SUNNY     10  -4  52 S8        30.46S WCI  -1
REDWOOD FALLS  SUNNY      5  -5  63 SW9       30.48F WCI  -9
OLIVIA         SUNNY      5  -2  72 S7        30.47F WCI  -7
PIPESTONE      SUNNY      5  -2  72 SW10      30.41S WCI -10
WINDOM         SUNNY      9  -2  61 SW8       30.46S WCI  -4
WORTHINGTON    SUNNY      7  -2  66 SW12      30.46S WCI  -9
JACKSON        SUNNY      9  -6  52 SW10      30.47S WCI  -6
TRACY          SUNNY      8  -3  61 SW13      30.45S WCI  -8
SLAYTON        SUNNY      7  -6  55 SW12      30.43S WCI  -9
$$
MNZ065>067-074>077-082>085-091>093-051800-
   South Central Minnesota

CITY           SKY/WX    TMP DP  RH WIND       PRES   REMARKS
MANKATO        SUNNY      5  -6  61 W7        30.51S WCI  -7
NEW ULM        SUNNY      7  -6  56 SW6       30.50S WCI  -3
ST JAMES       SUNNY      9  -2  61 S7        30.51S WCI  -3
FAIRMONT       SUNNY      7  -6  56 SW7       30.49S WCI  -5
GLENCOE        SUNNY      7  -2  66 SW6       30.49S WCI  -4
FARIBAULT      SUNNY      7  -4  61 W6        30.50S WCI  -3
OWATONNA       SUNNY      5  -6  61 SW7       30.50S WCI  -7
WASECA         SUNNY      5  -2  72 SW8       30.52S WCI  -8
ALBERT LEA     SUNNY      5  -8  56 W6        30.49S WCI  -6
$$
MNZ078>079-086>088-094>096-051800-
   Southeast Minnesota

CITY           SKY/WX    TMP DP  RH WIND       PRES   REMARKS
ROCHESTER      SUNNY      2  -9  60 W7        30.49S WCI -11
RED WING       SUNNY      7  -9  47 W6        30.52F WCI  -3
STANTON        SUNNY      6  -6  58 W5        30.51S WCI  -3
DODGE CENTER   SUNNY      3  -6  66 W6        30.47S WCI  -8
WINONA         SUNNY     10  -4  52 W6        30.55F WCI   1
AUSTIN         SUNNY      3  -8  60 W8        30.50S WCI -10
PRESTON        SUNNY      1  -7  67 W8        30.50S WCI -13
$$
ABBREVIATIONS USED IN REMARKS
   TC - TEMPERATURES IN CELSIUS
  WCI - WIND CHILL INDEX
   HX - HEAT INDEX
  VSB - VISIBILITY
$$


USA.gov is the U.S. government's official web portal to all federal, state and local government web resources and services.